{"data":{"norad_id":63651,"intl_designator":"2025-083T","name":"STARLINK-33705","alt_names":[],"object_type":"PAYLOAD","status":"ACTIVE","operator":null,"country":"US","launch_date":"2025-04-25","launch_site_code":"AFETR","launch_vehicle":null,"mission":null,"orbit_class":"UNKNOWN","rcs_meters":null,"size_class":null,"mass_kg":null,"dimensions":null,"purposes":["comms"],"wikipedia_slug":null,"has_3d_model":false,"image_url":null,"decayed_at":null,"tle_current":{"epoch":"2026-09-20T12:18:49.069152Z","epoch_age_seconds":151724,"freshness":"FRESH","line1":"1 63651U 25083T   26263.51306793  .00008849  00000+0  33064-3 0  9999","line2":"2 63651  43.0012 344.8514 0001354 280.0236  80.0462 15.27586839 79893","mean_motion":15.27586839,"eccentricity":0.0001354,"inclination_deg":43.0012,"raan_deg":344.8514,"arg_perigee_deg":280.0236,"mean_anomaly_deg":80.0462,"bstar":0.00033064,"rev_number":7989,"period_min":94.266326681805,"perigee_km":482.0996158651,"apogee_km":483.95761951437,"semimajor_km":6861.1656176897,"source":"CELESTRAK","updated_at":"2026-09-21T09:00:35.054310Z"}}}